Location: ???????
(55.8860°N, 38.0932°E)
Time: 00:04:23
(UTC+00:00)

CZ-4 DEB - Visible Passes

Search period start: 16 September 2024 00:00
Search period end: 26 September 2024 00:00
Orbit: 635 x 776 km, 98.0° (Epoch: 14 September)

Date Brightness Start Highest point End Pass type
(mag) Time Alt. Az. Time Alt. Az. Time Alt. Az.
17 Sep ? 16:48:42 10° SSW 16:52:25 26° W 16:56:08 10° NW visible
18 Sep ? 17:35:13 10° WSW 17:36:46 12° W 17:38:19 10° WNW visible
19 Sep ? 16:38:06 10° SSW 16:42:02 31° W 16:45:59 10° NNW visible
20 Sep ? 17:23:56 10° WSW 17:26:16 14° W 17:28:37 10° NW visible
21 Sep ? 16:27:29 10° SSW 16:31:35 37° W 16:35:42 10° NNW visible
22 Sep ? 17:12:50 10° SW 17:15:43 17° W 17:18:37 10° NW visible
23 Sep ? 16:16:50 10° S 16:21:04 45° W 16:25:20 10° NNW visible
24 Sep ? 17:01:49 10° SW 17:05:06 20° W 17:08:24 10° NW visible
25 Sep ? 16:06:09 10° S 16:10:29 55° W 16:14:51 10° NNW visible
